Regional Weather Roundup
Issued by NWS Upton, NY

Current Version | Previous Version | Text Only | Print | Product List | Glossary On
Versions: 1 2 3 4 5 6 7 8 9 10 11 12 13 14 15 16 17 18 19 20 21 22 23 24 25 26 27
000
ASUS41 KOKX 252004
RWROKX

REGIONAL WEATHER ROUNDUP
NATIONAL WEATHER SERVICE NEW YORK NY
400 PM EDT MON JUL 25 2016

NOTE: "FAIR" INDICATES FEW OR NO CLOUDS BELOW 12,000 FEET WITH NO
SIGNIFICANT WEATHER AND/OR OBSTRUCTIONS TO VISIBILITY.

NYZ071-072-176-178-NJZ106-104-252100-
NEW YORK CITY METRO AREA

CITY           SKY/WX    TMP DP  RH WIND       PRES   REMARKS
Central Park   CLOUDY    91  74  57 VRB6      29.84F HX 100
LaGuardia APRT PTSUNNY   91  74  57 S14G23    29.81F HX 100
Kennedy INTL   PTSUNNY   86  73  65 S13       29.84F HX  93
Newark/Liberty PTSUNNY   97  70  41 SW8       29.80F HX 103
BRNX BOT. GARD   N/A     79  73  83 E8        29.85R
Wall St Helipt PTCLDY    91  73  55 S5        29.82F HX 100
Teterboro      PTSUNNY   90  67  46 NE6       29.80F HX  93
$$

NYZ177-179-078>081-252100-
LONG ISLAND NEW YORK

CITY           SKY/WX    TMP DP  RH WIND       PRES   REMARKS
FARMINGDALE    MOSUNNY   86  74  67 SW8       29.86F HX  94
ISLIP          CLOUDY    83  73  72 SW10      29.87F
SHIRLEY        CLOUDY    83  73  72 S10       29.88S
RIVERHEAD      NOT AVBL
WESTHAMPTON    SUNNY     81  71  71 SW12G20   29.89F
SOUTHAMPTON      N/A     79  72  78 SW7       29.84F
BRIDGEHAMPTON    N/A     84  72  65 S2        29.86F
EAST HAMPTON   FAIR      81  71  71 SW12G17   29.86F
MONTAUK POINT    N/A     79  71  76 S7        29.88F
$$

NYZ052-065-067-252100-
HUDSON VALLEY

CITY           SKY/WX    TMP DP  RH WIND       PRES   REMARKS
WHITE PLAINS   CLOUDY    77  74  90 NE7       29.87S FOG
NEWBURGH       MOSUNNY   75  75 100 CALM      29.86F
MONTGOMERY       N/A     80  73  79 SW6       29.85F
POUGHKEEPSIE   CLOUDY    80  74  81 S6        29.83F
ALBANY         CLOUDY    84  71  65 SW5       29.82S
$$

NJZ001-105-106-008-010-013-015-019>022-104-252100-
NEW JERSEY

CITY           SKY/WX    TMP DP  RH WIND       PRES   REMARKS
NEWARK/LIBERTY PTSUNNY   97  70  41 SW8       29.80F HX 103
TETERBORO      PTSUNNY   90  67  46 NE6       29.80F HX  93
CALDWELL       PTSUNNY   88  70  55 E6G18     29.83F HX  93
MORRISTOWN     PTSUNNY   95  70  43 W9        29.82F HX 101
SOMERVILLE     CLOUDY    94  74  52 S9        29.79F HX 104
SUSSEX         CLOUDY    80  72  76 E6        29.87F
ANDOVER          N/A     84  70  62 VRB5      29.86F
TRENTON        MOSUNNY   93  74  53 SW10      29.82F HX 103
MILLVILLE      SUNNY     94  76  55 VRB7      29.86F HX 106
ATLANTIC CITY  SUNNY     94  75  54 S13       29.86F HX 105
WRIGHTSTOWN    SUNNY     95  75  52 W13G20    29.80F HX 106
TOMS RIVER     MOSUNNY   96  77  54 W14       29.84F HX 111
BELMAR         SUNNY     93  76  57 SW7       29.84F HX 105
$$

PAZ047>061-062-071-252100-
EASTERN PENNSYLVANIA

CITY           SKY/WX    TMP DP  RH WIND       PRES   REMARKS
PHILADELPHIA   PTSUNNY   96  75  50 SW16      29.84F HX 108
ALLENTOWN      PTSUNNY   90  71  53 S5        29.84F THUNDER HX  96
SCRANTON       CLOUDY    86  69  56 NE10      29.83F HX  90
$$

CTZ002-004>006-009-010-012-RIZ004-006-007-MAZ004-011-015-252100-
SOUTHERN NEW ENGLAND
 IN CT

CITY           SKY/WX    TMP DP  RH WIND       PRES   REMARKS
BRADLEY INTL   CLOUDY    90  70  51 S13       29.78F HX  95
HARTFORD       CLOUDY    92  71  50 S10       29.80F HX  98
DANBURY        LGT RAIN  76  71  85 SE12      29.88F
WTRBRY/OXFORD  TSTM      75  72  88 SW8       29.89S
BRIDGEPORT     TSTM      76  70  82 N17G33    29.90R
MERIDEN        MOSUNNY   90  69  50 S8        29.83F HX  94
NEW HAVEN      PTSUNNY   83  70  64 SW9       29.88S THUNDER
CHESTER        FAIR      88  72  58 VRB7      29.87F HX  94
GROTON         SUNNY     80  70  71 S12       29.85F
WILLIMANTIC    NOT AVBL

 IN RI

CITY           SKY/WX    TMP DP  RH WIND       PRES   REMARKS
PROVIDENCE     CLOUDY    85  69  58 SE13      29.85F
BLOCK ISLAND   SUNNY     79  70  74 SW13      29.88F
WESTERLY       SUNNY     80  68  66 SW12G20   29.88F

 IN MA

CITY           SKY/WX    TMP DP  RH WIND       PRES   REMARKS
BOSTON         CLOUDY    83  69  62 E5        29.81F
WORCESTER      CLOUDY    86  64  47 SW8       29.87F
WESTFIELD      CLOUDY    91  66  43 SW5       29.78F HX  93
PROVINCETOWN   MOSUNNY   83  69  62 SW16G24   29.85F
NANTUCKET      CLOUDY    73  70  90 S14       29.90F
$$

ANZ330-335-338-340-345-350-353-355-252100-
COASTAL MARINE OBSERVATIONS


STATION/POSITION TIME  SKY/WX   TEMP    WIND        PRES    VSBY  WAVE
                                AIR SEA DIR/SP/G                  HT/PER
                 (UTC)          (F)     (DEG/KT/KT) (MB)    (MI)  (FT/S)
NY HARB ENTRANCE 1850            76 75  190/ 10/ 10 1011.3          2/ 4
20S FIRE ISLAND  1850            75 74  200/  8/ 10 1011.8          3/ 5
GREAT SOUTH BAY  1900            77 81  200/ 10/ 16   N/A
23 SSW MONTAUK P NOT AVBL
15 E BARNEGAT LI 1922               75                N/A           2/ 3
HUDSON CANYON    NOT AVBL
KINGS POINT      1900            83 72              1010.7
EXECUTION ROCKS  1900            84     170/  6/ 10   N/A
CENTRAL LI SOUND NOT AVBL
EASTERN LI SOUND 1900            72 69  160/  8/ 10   N/A
ROBBINS REEF     1900            80     170/ 14/ 15 1010.2
$$


>>>>>>>>>>>>>>>>>>>>>>>>>>>> KEY <<<<<<<<<<<<<<<<<<<<<<<<<<<
>                                                          <
>     SKY/WX - SKY CONDITION/PRESENT WEATHER               <
>     TMP    - TEMPERATURE IN FAHRENHEIT                   <
>     DP     - DEWPOINT IN FAHRENHEIT                      <
>     RH     - RELATIVE HUMIDITY IN PERCENT                <
>     WIND   - DIRECTION AND SPEED IN MPH                  <
>     PRES   - MEAN SEA LEVEL PRESSURE IN INCHES OF HG     <
>     WCI    - WIND CHILL INDEX                            <
>     VSB    - VISIBILITY IN MILES                         <
>     HX     - HEAT INDEX                                  <
>     TC     - TEMPERATURE IN CELSIUS                      <
>     VRB    - VARIABLE WIND DIRECTION                     <
>                                                          <
>>>>>>>>>>>>>>>>>>>>>>>>>>>> KEY <<<<<<<<<<<<<<<<<<<<<<<<<<<






USA.gov is the U.S. government's official web portal to all federal, state and local government web resources and services.